Year,Month,Day,Hour,Minute,Value (Times are PST for temperature in C)
2022,10,07,00,00,13.40
2022,10,07,00,01,13.40
2022,10,07,00,02,13.40
2022,10,07,00,03,13.40
2022,10,07,00,04,13.40
2022,10,07,00,05,13.50
2022,10,07,00,06,13.50
2022,10,07,00,07,13.50
2022,10,07,00,08,13.50
2022,10,07,00,09,13.50
2022,10,07,00,10,13.50
2022,10,07,00,11,13.50
2022,10,07,00,12,13.50
2022,10,07,00,13,13.50
2022,10,07,00,14,13.50
2022,10,07,00,15,13.50
2022,10,07,00,16,13.50
2022,10,07,00,17,13.50
2022,10,07,00,18,13.50
2022,10,07,00,19,13.50
2022,10,07,00,20,13.50
2022,10,07,00,21,13.50
2022,10,07,00,22,13.50
2022,10,07,00,23,13.40
2022,10,07,00,24,13.40
2022,10,07,00,25,13.40
2022,10,07,00,26,13.40
2022,10,07,00,27,13.40
2022,10,07,00,28,13.40
2022,10,07,00,29,13.40
2022,10,07,00,30,13.40
2022,10,07,00,31,13.40
2022,10,07,00,32,13.40
2022,10,07,00,33,13.40
2022,10,07,00,34,13.40
2022,10,07,00,35,13.40
2022,10,07,00,36,13.40
2022,10,07,00,37,13.40
2022,10,07,00,38,13.40
2022,10,07,00,39,13.40
2022,10,07,00,40,13.40
2022,10,07,00,41,13.40
2022,10,07,00,42,13.40
2022,10,07,00,43,13.40
2022,10,07,00,44,13.40
2022,10,07,00,45,13.40
2022,10,07,00,46,13.50
2022,10,07,00,47,13.40
2022,10,07,00,48,13.50
2022,10,07,00,49,13.50
2022,10,07,00,50,13.50
2022,10,07,00,51,13.50
2022,10,07,00,52,13.50
2022,10,07,00,53,13.50
2022,10,07,00,54,13.50
2022,10,07,00,55,13.50
2022,10,07,00,56,13.50
2022,10,07,00,57,13.60
2022,10,07,00,58,13.60
2022,10,07,00,59,13.60
2022,10,07,01,00,13.60
2022,10,07,01,01,13.60
2022,10,07,01,02,13.60
2022,10,07,01,03,13.60
2022,10,07,01,04,13.60
2022,10,07,01,05,13.60
2022,10,07,01,06,13.60
2022,10,07,01,07,13.60
2022,10,07,01,08,13.60
2022,10,07,01,09,13.60
2022,10,07,01,10,13.60
2022,10,07,01,11,13.60
2022,10,07,01,12,13.60
2022,10,07,01,13,13.60
2022,10,07,01,14,13.60
2022,10,07,01,15,13.60
2022,10,07,01,16,13.60
2022,10,07,01,17,13.60
2022,10,07,01,18,13.60
2022,10,07,01,19,13.60
2022,10,07,01,20,13.60
2022,10,07,01,21,13.60
2022,10,07,01,22,13.50
2022,10,07,01,23,13.50
2022,10,07,01,24,13.50
2022,10,07,01,25,13.50
2022,10,07,01,26,13.50
2022,10,07,01,27,13.50
2022,10,07,01,28,13.50
2022,10,07,01,29,13.40
2022,10,07,01,30,13.40
2022,10,07,01,31,13.50
2022,10,07,01,32,13.40
2022,10,07,01,33,13.50
2022,10,07,01,34,13.50
2022,10,07,01,35,13.50
2022,10,07,01,36,13.50
2022,10,07,01,37,13.50
2022,10,07,01,38,13.60
2022,10,07,01,39,13.60
2022,10,07,01,40,13.60
2022,10,07,01,41,13.60
2022,10,07,01,42,13.60
2022,10,07,01,43,13.60
2022,10,07,01,44,13.60
2022,10,07,01,45,13.60
2022,10,07,01,46,13.60
2022,10,07,01,47,13.50
2022,10,07,01,48,13.50
2022,10,07,01,49,13.60
2022,10,07,01,50,13.60
2022,10,07,01,51,13.60
2022,10,07,01,52,13.60
2022,10,07,01,53,13.60
2022,10,07,01,54,13.60
2022,10,07,01,55,13.60
2022,10,07,01,56,13.60
2022,10,07,01,57,13.60
2022,10,07,01,58,13.60
2022,10,07,01,59,13.60
2022,10,07,02,00,13.60
2022,10,07,02,01,13.60
2022,10,07,02,02,13.70
2022,10,07,02,03,13.70
2022,10,07,02,04,13.70
2022,10,07,02,05,13.70
2022,10,07,02,06,13.70
2022,10,07,02,07,13.70
2022,10,07,02,08,13.70
2022,10,07,02,09,13.70
2022,10,07,02,10,13.70
2022,10,07,02,11,13.60
2022,10,07,02,12,13.60
2022,10,07,02,13,13.60
2022,10,07,02,14,13.60
2022,10,07,02,15,13.60
2022,10,07,02,16,13.60
2022,10,07,02,17,13.70
2022,10,07,02,18,13.70
2022,10,07,02,19,13.70
2022,10,07,02,20,13.70
2022,10,07,02,21,13.70
2022,10,07,02,22,13.70
2022,10,07,02,23,13.70
2022,10,07,02,24,13.70
2022,10,07,02,25,13.70
2022,10,07,02,26,13.70
2022,10,07,02,27,13.70
2022,10,07,02,28,13.70
2022,10,07,02,29,13.80
2022,10,07,02,30,13.80
2022,10,07,02,31,13.80
2022,10,07,02,32,13.90
2022,10,07,02,33,13.90
2022,10,07,02,34,13.90
2022,10,07,02,35,14.00
2022,10,07,02,36,14.00
2022,10,07,02,37,14.10
2022,10,07,02,38,14.10
2022,10,07,02,39,14.10
2022,10,07,02,40,14.10
2022,10,07,02,41,14.20
2022,10,07,02,42,14.20
2022,10,07,02,43,14.20
2022,10,07,02,44,14.20
2022,10,07,02,45,14.20
2022,10,07,02,46,14.30
2022,10,07,02,47,14.30
2022,10,07,02,48,14.30
2022,10,07,02,49,14.30
2022,10,07,02,50,14.30
2022,10,07,02,51,14.30
2022,10,07,02,52,14.20
2022,10,07,02,53,14.20
2022,10,07,02,54,14.20
2022,10,07,02,55,14.20
2022,10,07,02,56,14.20
2022,10,07,02,57,14.10
2022,10,07,02,58,14.10
2022,10,07,02,59,14.10
2022,10,07,03,00,14.10
2022,10,07,03,01,14.10
2022,10,07,03,02,14.00
2022,10,07,03,03,14.00
2022,10,07,03,04,14.00
2022,10,07,03,05,14.00
2022,10,07,03,06,14.00
2022,10,07,03,07,14.00
2022,10,07,03,08,14.00
2022,10,07,03,09,13.90
2022,10,07,03,10,13.90
2022,10,07,03,11,13.90
2022,10,07,03,12,13.90
2022,10,07,03,13,14.00
2022,10,07,03,14,14.00
2022,10,07,03,15,14.00
2022,10,07,03,16,14.00
2022,10,07,03,17,14.00
2022,10,07,03,18,14.10
2022,10,07,03,19,14.10
2022,10,07,03,20,14.10
2022,10,07,03,21,14.10
2022,10,07,03,22,14.10
2022,10,07,03,23,14.10
2022,10,07,03,24,14.10
2022,10,07,03,25,14.10
2022,10,07,03,26,14.10
2022,10,07,03,27,14.10
2022,10,07,03,28,14.10
2022,10,07,03,29,14.10
2022,10,07,03,30,14.10
2022,10,07,03,31,14.10
2022,10,07,03,32,14.00
2022,10,07,03,33,14.00
2022,10,07,03,34,14.00
2022,10,07,03,35,14.00
2022,10,07,03,36,13.90
2022,10,07,03,37,13.90
2022,10,07,03,38,13.90
2022,10,07,03,39,13.90
2022,10,07,03,40,13.90
2022,10,07,03,41,13.90
2022,10,07,03,42,13.90
2022,10,07,03,43,13.90
2022,10,07,03,44,13.90
2022,10,07,03,45,13.90
2022,10,07,03,46,13.90
2022,10,07,03,47,13.90
2022,10,07,03,48,13.90
2022,10,07,03,49,13.90
2022,10,07,03,50,13.80
2022,10,07,03,51,13.80
2022,10,07,03,52,13.80
2022,10,07,03,53,13.80
2022,10,07,03,54,13.80
2022,10,07,03,55,13.80
2022,10,07,03,56,13.80
2022,10,07,03,57,13.80
2022,10,07,03,58,13.80
2022,10,07,03,59,13.80
2022,10,07,04,00,13.80
2022,10,07,04,01,13.80
2022,10,07,04,02,13.80
2022,10,07,04,03,13.80
2022,10,07,04,04,13.80
2022,10,07,04,05,13.80
2022,10,07,04,06,13.80
2022,10,07,04,07,13.80
2022,10,07,04,08,13.80
2022,10,07,04,09,13.80
2022,10,07,04,10,13.80
2022,10,07,04,11,13.80
2022,10,07,04,12,13.70
2022,10,07,04,13,13.70
2022,10,07,04,14,13.70
2022,10,07,04,15,13.70
2022,10,07,04,16,13.70
2022,10,07,04,17,13.70
2022,10,07,04,18,13.70
2022,10,07,04,19,13.70
2022,10,07,04,20,13.70
2022,10,07,04,21,13.70
2022,10,07,04,22,13.70
2022,10,07,04,23,13.70
2022,10,07,04,24,13.70
2022,10,07,04,25,13.70
2022,10,07,04,26,13.70
2022,10,07,04,27,13.70
2022,10,07,04,28,13.70
2022,10,07,04,29,13.70
2022,10,07,04,30,13.70
2022,10,07,04,31,13.70
2022,10,07,04,32,13.70
2022,10,07,04,33,13.70
2022,10,07,04,34,13.70
2022,10,07,04,35,13.70
2022,10,07,04,36,13.70
2022,10,07,04,37,13.70
2022,10,07,04,38,13.70
2022,10,07,04,39,13.70
2022,10,07,04,40,13.70
2022,10,07,04,41,13.70
2022,10,07,04,42,13.70
2022,10,07,04,43,13.70
2022,10,07,04,44,13.70
2022,10,07,04,45,13.70
2022,10,07,04,46,13.80
2022,10,07,04,47,13.80
2022,10,07,04,48,13.80
2022,10,07,04,49,13.80
2022,10,07,04,50,13.80
2022,10,07,04,51,13.80
2022,10,07,04,52,13.80
2022,10,07,04,53,13.80
2022,10,07,04,54,13.80
2022,10,07,04,55,13.90
2022,10,07,04,56,13.90
2022,10,07,04,57,13.90
2022,10,07,04,58,13.90
2022,10,07,04,59,13.90
2022,10,07,05,00,13.90
2022,10,07,05,01,13.90
2022,10,07,05,02,13.90
2022,10,07,05,03,13.90
2022,10,07,05,04,13.90
2022,10,07,05,05,13.90
2022,10,07,05,06,13.80
2022,10,07,05,07,13.80
2022,10,07,05,08,13.80
2022,10,07,05,09,13.80
2022,10,07,05,10,13.80
2022,10,07,05,11,13.80
2022,10,07,05,12,13.80
2022,10,07,05,13,13.70
2022,10,07,05,14,13.70
2022,10,07,05,15,13.70
2022,10,07,05,16,13.70
2022,10,07,05,17,13.70
2022,10,07,05,18,13.70
2022,10,07,05,19,13.70
2022,10,07,05,20,13.70
2022,10,07,05,21,13.70
2022,10,07,05,22,13.70
2022,10,07,05,23,13.70
2022,10,07,05,24,13.70
2022,10,07,05,25,13.70
2022,10,07,05,26,13.70
2022,10,07,05,27,13.70
2022,10,07,05,28,13.70
2022,10,07,05,29,13.70
2022,10,07,05,30,13.70
2022,10,07,05,31,13.70
2022,10,07,05,32,13.70
2022,10,07,05,33,13.80
2022,10,07,05,34,13.80
2022,10,07,05,35,13.80
2022,10,07,05,36,13.80
2022,10,07,05,37,13.80
2022,10,07,05,38,13.80
2022,10,07,05,39,13.80
2022,10,07,05,40,13.80
2022,10,07,05,41,13.80
2022,10,07,05,42,13.80
2022,10,07,05,43,13.80
2022,10,07,05,44,13.80
2022,10,07,05,45,13.80
2022,10,07,05,46,13.80
2022,10,07,05,47,13.80
2022,10,07,05,48,13.70
2022,10,07,05,49,13.70
2022,10,07,05,50,13.70
2022,10,07,05,51,13.70
2022,10,07,05,52,13.70
2022,10,07,05,53,13.70
2022,10,07,05,54,13.60
2022,10,07,05,55,13.60
2022,10,07,05,56,13.60
2022,10,07,05,57,13.60
2022,10,07,05,58,13.60
2022,10,07,05,59,13.60
2022,10,07,06,00,13.50
2022,10,07,06,01,13.50
2022,10,07,06,02,13.50
2022,10,07,06,03,13.50
2022,10,07,06,04,13.50
2022,10,07,06,05,13.50
2022,10,07,06,06,13.50
2022,10,07,06,07,13.50
2022,10,07,06,08,13.50
2022,10,07,06,09,13.50
2022,10,07,06,10,13.50
2022,10,07,06,11,13.50
2022,10,07,06,12,13.50
2022,10,07,06,13,13.40
2022,10,07,06,14,13.40
2022,10,07,06,15,13.40
2022,10,07,06,16,13.40
2022,10,07,06,17,13.40
2022,10,07,06,18,13.40
2022,10,07,06,19,13.40
2022,10,07,06,20,13.40
2022,10,07,06,21,13.40
2022,10,07,06,22,13.40
2022,10,07,06,23,13.40
2022,10,07,06,24,13.40
2022,10,07,06,25,13.40
2022,10,07,06,26,13.50
2022,10,07,06,27,13.50
2022,10,07,06,28,13.50
2022,10,07,06,29,13.50
2022,10,07,06,30,13.50
2022,10,07,06,31,13.50
2022,10,07,06,32,13.50
2022,10,07,06,33,13.40
2022,10,07,06,34,13.40
2022,10,07,06,35,13.40
2022,10,07,06,36,13.40
2022,10,07,06,37,13.40
2022,10,07,06,38,13.40
2022,10,07,06,39,13.40
2022,10,07,06,40,13.40
2022,10,07,06,41,13.40
2022,10,07,06,42,13.40
2022,10,07,06,43,13.30
2022,10,07,06,44,13.30
2022,10,07,06,45,13.30
2022,10,07,06,46,13.30
2022,10,07,06,47,13.30
2022,10,07,06,48,13.30
2022,10,07,06,49,13.30
2022,10,07,06,50,13.30
2022,10,07,06,51,13.20
2022,10,07,06,52,13.20
2022,10,07,06,53,13.20
2022,10,07,06,54,13.20
2022,10,07,06,55,13.20
2022,10,07,06,56,13.20
2022,10,07,06,57,13.20
2022,10,07,06,58,13.20
2022,10,07,06,59,13.20
2022,10,07,07,00,13.20
2022,10,07,07,01,13.20
2022,10,07,07,02,13.20
2022,10,07,07,03,13.20
2022,10,07,07,04,13.20
2022,10,07,07,05,13.20
2022,10,07,07,06,13.20
2022,10,07,07,07,13.20
2022,10,07,07,08,13.20
2022,10,07,07,09,13.20
2022,10,07,07,10,13.20
2022,10,07,07,11,13.20
2022,10,07,07,12,13.20
2022,10,07,07,13,13.20
2022,10,07,07,14,13.20
2022,10,07,07,15,13.20
2022,10,07,07,16,13.30
2022,10,07,07,17,13.30
2022,10,07,07,18,13.30
2022,10,07,07,19,13.30
2022,10,07,07,20,13.30
2022,10,07,07,21,13.30
2022,10,07,07,22,13.20
2022,10,07,07,23,13.20
2022,10,07,07,24,13.10
2022,10,07,07,25,13.00
2022,10,07,07,26,13.00
2022,10,07,07,27,13.00
2022,10,07,07,28,12.90
2022,10,07,07,29,12.90
2022,10,07,07,30,12.90
2022,10,07,07,31,12.90
2022,10,07,07,32,12.90
2022,10,07,07,33,12.90
2022,10,07,07,34,12.90
2022,10,07,07,35,12.90
2022,10,07,07,36,12.80
2022,10,07,07,37,12.90
2022,10,07,07,38,12.90
2022,10,07,07,39,12.90
2022,10,07,07,40,12.90
2022,10,07,07,41,12.90
2022,10,07,07,42,12.90
2022,10,07,07,43,12.90
2022,10,07,07,44,12.90
2022,10,07,07,45,12.90
2022,10,07,07,46,12.90
2022,10,07,07,47,12.90
2022,10,07,07,48,12.90
2022,10,07,07,49,12.90
2022,10,07,07,50,12.90
2022,10,07,07,51,12.90
2022,10,07,07,52,12.90
2022,10,07,07,53,12.90
2022,10,07,07,54,12.90
2022,10,07,07,55,12.90
2022,10,07,07,56,12.90
2022,10,07,07,57,12.90
2022,10,07,07,58,12.90
2022,10,07,07,59,12.90
2022,10,07,08,00,12.90
2022,10,07,08,01,12.90
2022,10,07,08,02,12.90
2022,10,07,08,03,12.90
2022,10,07,08,04,13.00
2022,10,07,08,05,13.00
2022,10,07,08,06,13.00
2022,10,07,08,07,13.10
2022,10,07,08,08,13.10
2022,10,07,08,09,13.10
2022,10,07,08,10,13.20
2022,10,07,08,11,13.20
2022,10,07,08,12,13.20
2022,10,07,08,13,13.20
2022,10,07,08,14,13.20
2022,10,07,08,15,13.30
2022,10,07,08,16,13.30
2022,10,07,08,17,13.30
2022,10,07,08,18,13.30
2022,10,07,08,19,13.40
2022,10,07,08,20,13.40
2022,10,07,08,21,13.40
2022,10,07,08,22,13.40
2022,10,07,08,23,13.50
2022,10,07,08,24,13.50
2022,10,07,08,25,13.60
2022,10,07,08,26,13.60
2022,10,07,08,27,13.70
2022,10,07,08,28,13.70
2022,10,07,08,29,13.80
2022,10,07,08,30,13.80
2022,10,07,08,31,13.80
2022,10,07,08,32,13.90
2022,10,07,08,33,13.90
2022,10,07,08,34,14.00
2022,10,07,08,35,14.00
2022,10,07,08,36,14.10
2022,10,07,08,37,14.10
2022,10,07,08,38,14.20
2022,10,07,08,39,14.30
2022,10,07,08,40,14.30
2022,10,07,08,41,14.40
2022,10,07,08,42,14.50
2022,10,07,08,43,14.50
2022,10,07,08,44,14.60
2022,10,07,08,45,14.60
2022,10,07,08,46,14.60
2022,10,07,08,47,14.70
2022,10,07,08,48,14.70
2022,10,07,08,49,14.70
2022,10,07,08,50,14.70
2022,10,07,08,51,14.70
2022,10,07,08,52,14.80
2022,10,07,08,53,14.80
2022,10,07,08,54,14.80
2022,10,07,08,55,14.80
2022,10,07,08,56,14.80
2022,10,07,08,57,14.90
2022,10,07,08,58,14.90
2022,10,07,08,59,14.90
2022,10,07,09,00,15.00
2022,10,07,09,01,15.00
2022,10,07,09,02,15.10
2022,10,07,09,03,15.10
2022,10,07,09,04,15.10
2022,10,07,09,05,15.20
2022,10,07,09,06,15.30
2022,10,07,09,07,15.30
2022,10,07,09,08,15.40
2022,10,07,09,09,15.50
2022,10,07,09,10,15.60
2022,10,07,09,11,15.70
2022,10,07,09,12,15.80
2022,10,07,09,13,15.80
2022,10,07,09,14,15.80
2022,10,07,09,15,15.80
2022,10,07,09,16,15.90
2022,10,07,09,17,15.90
2022,10,07,09,18,15.90
2022,10,07,09,19,15.90
2022,10,07,09,20,15.90
2022,10,07,09,21,15.90
2022,10,07,09,22,16.00
2022,10,07,09,23,16.00
2022,10,07,09,24,16.10
2022,10,07,09,25,16.10
2022,10,07,09,26,16.10
2022,10,07,09,27,16.10
2022,10,07,09,28,16.10
2022,10,07,09,29,16.10
2022,10,07,09,30,16.10
2022,10,07,09,31,16.20
2022,10,07,09,32,16.20
2022,10,07,09,33,16.20
2022,10,07,09,34,16.20
2022,10,07,09,35,16.20
2022,10,07,09,36,16.20
2022,10,07,09,37,16.20
2022,10,07,09,38,16.20
2022,10,07,09,39,16.30
2022,10,07,09,40,16.30
2022,10,07,09,41,16.30
2022,10,07,09,42,16.30
2022,10,07,09,43,16.30
2022,10,07,09,44,16.30
2022,10,07,09,45,16.30
2022,10,07,09,46,16.40
2022,10,07,09,47,16.40
2022,10,07,09,48,16.40
2022,10,07,09,49,16.50
2022,10,07,09,50,16.60
2022,10,07,09,51,16.70
2022,10,07,09,52,16.80
2022,10,07,09,53,16.90
2022,10,07,09,54,17.10
2022,10,07,09,55,17.20
2022,10,07,09,56,17.40
2022,10,07,09,57,17.40
2022,10,07,09,58,17.50
2022,10,07,09,59,17.50
2022,10,07,10,00,17.60
2022,10,07,10,01,17.60
2022,10,07,10,02,17.70
2022,10,07,10,03,17.80
2022,10,07,10,04,17.90
2022,10,07,10,05,18.00
2022,10,07,10,06,18.00
2022,10,07,10,07,18.10
2022,10,07,10,08,18.20
2022,10,07,10,09,18.30
2022,10,07,10,10,18.30
2022,10,07,10,11,18.40
2022,10,07,10,12,18.50
2022,10,07,10,13,18.50
2022,10,07,10,14,18.60
2022,10,07,10,15,18.60
2022,10,07,10,16,18.70
2022,10,07,10,17,18.80
2022,10,07,10,18,18.80
2022,10,07,10,19,18.90
2022,10,07,10,20,19.00
2022,10,07,10,21,19.10
2022,10,07,10,22,19.20
2022,10,07,10,23,19.20
2022,10,07,10,24,19.30
2022,10,07,10,25,19.30
2022,10,07,10,26,19.30
2022,10,07,10,27,19.20
2022,10,07,10,28,19.20
2022,10,07,10,29,19.10
2022,10,07,10,30,19.10
2022,10,07,10,31,19.00
2022,10,07,10,32,19.00
2022,10,07,10,33,19.00
2022,10,07,10,34,19.00
2022,10,07,10,35,19.00
2022,10,07,10,36,19.10
2022,10,07,10,37,19.10
2022,10,07,10,38,19.20
2022,10,07,10,39,19.20
2022,10,07,10,40,19.30
2022,10,07,10,41,19.30
2022,10,07,10,42,19.30
2022,10,07,10,43,19.30
2022,10,07,10,44,19.30
2022,10,07,10,45,19.40
2022,10,07,10,46,19.50
2022,10,07,10,47,19.60
2022,10,07,10,48,19.70
2022,10,07,10,49,19.70
2022,10,07,10,50,19.80
2022,10,07,10,51,19.80
2022,10,07,10,52,19.90
2022,10,07,10,53,20.00
2022,10,07,10,54,20.10
2022,10,07,10,55,20.20
2022,10,07,10,56,20.30
2022,10,07,10,57,20.40
2022,10,07,10,58,20.40
2022,10,07,10,59,20.50
2022,10,07,11,00,20.60
2022,10,07,11,01,20.60
2022,10,07,11,02,20.70
2022,10,07,11,03,20.80
2022,10,07,11,04,20.90
2022,10,07,11,05,21.00
2022,10,07,11,06,21.10
2022,10,07,11,07,21.20
2022,10,07,11,08,21.30
2022,10,07,11,09,21.30
2022,10,07,11,10,21.30
2022,10,07,11,11,21.30
2022,10,07,11,12,21.40
2022,10,07,11,13,21.50
2022,10,07,11,14,21.60
2022,10,07,11,15,21.60
2022,10,07,11,16,21.70
2022,10,07,11,17,21.80
2022,10,07,11,18,22.00
2022,10,07,11,19,22.00
2022,10,07,11,20,22.00
2022,10,07,11,21,22.00
2022,10,07,11,22,22.00
2022,10,07,11,23,22.00
2022,10,07,11,24,22.10
2022,10,07,11,25,22.20
2022,10,07,11,26,22.20
2022,10,07,11,27,22.30
2022,10,07,11,28,22.30
2022,10,07,11,29,22.40
2022,10,07,11,30,22.40
2022,10,07,11,31,22.40
2022,10,07,11,32,22.40
2022,10,07,11,33,22.40
2022,10,07,11,34,22.50
2022,10,07,11,35,22.40
2022,10,07,11,36,22.30
2022,10,07,11,37,22.20
2022,10,07,11,38,22.20
2022,10,07,11,39,22.20
2022,10,07,11,40,22.30
2022,10,07,11,41,22.30
2022,10,07,11,42,22.30
2022,10,07,11,43,22.30
2022,10,07,11,44,22.30
2022,10,07,11,45,22.30
2022,10,07,11,46,22.40
2022,10,07,11,47,22.40
2022,10,07,11,48,22.40
2022,10,07,11,49,22.40
2022,10,07,11,50,22.50
2022,10,07,11,51,22.50
2022,10,07,11,52,22.50
2022,10,07,11,53,22.40
2022,10,07,11,54,22.30
2022,10,07,11,55,22.30
2022,10,07,11,56,22.30
2022,10,07,11,57,22.20
2022,10,07,11,58,22.20
2022,10,07,11,59,22.30
2022,10,07,12,00,22.30
2022,10,07,12,01,22.30
2022,10,07,12,02,22.30
2022,10,07,12,03,22.30
2022,10,07,12,04,22.40
2022,10,07,12,05,22.40
2022,10,07,12,06,22.40
2022,10,07,12,07,22.50
2022,10,07,12,08,22.60
2022,10,07,12,09,22.60
2022,10,07,12,10,22.60
2022,10,07,12,11,22.60
2022,10,07,12,12,22.70
2022,10,07,12,13,22.70
2022,10,07,12,14,22.80
2022,10,07,12,15,22.80
2022,10,07,12,16,22.90
2022,10,07,12,17,22.90
2022,10,07,12,18,23.00
2022,10,07,12,19,23.00
2022,10,07,12,20,23.10
2022,10,07,12,21,23.10
2022,10,07,12,22,23.10
2022,10,07,12,23,23.20
2022,10,07,12,24,23.20
2022,10,07,12,25,23.20
2022,10,07,12,26,23.30
2022,10,07,12,27,23.30
2022,10,07,12,28,23.40
2022,10,07,12,29,23.40
2022,10,07,12,30,23.50
2022,10,07,12,31,23.50
2022,10,07,12,32,23.60
2022,10,07,12,33,23.60
2022,10,07,12,34,23.70
2022,10,07,12,35,23.80
2022,10,07,12,36,23.90
2022,10,07,12,37,24.00
2022,10,07,12,38,24.00
2022,10,07,12,39,24.10
2022,10,07,12,40,24.00
2022,10,07,12,41,24.10
2022,10,07,12,42,24.10
2022,10,07,12,43,24.10
2022,10,07,12,44,24.10
2022,10,07,12,45,24.10
2022,10,07,12,46,24.10
2022,10,07,12,47,24.10
2022,10,07,12,48,24.10
2022,10,07,12,49,24.20
2022,10,07,12,50,24.20
2022,10,07,12,51,24.20
2022,10,07,12,52,24.20
2022,10,07,12,53,24.20
2022,10,07,12,54,24.20
2022,10,07,12,55,24.30
2022,10,07,12,56,24.30
2022,10,07,12,57,24.40
2022,10,07,12,58,24.50
2022,10,07,12,59,24.60
2022,10,07,13,00,24.70
2022,10,07,13,01,24.70
2022,10,07,13,02,24.60
2022,10,07,13,03,24.60
2022,10,07,13,04,24.60
2022,10,07,13,05,24.60
2022,10,07,13,06,24.60
2022,10,07,13,07,24.60
2022,10,07,13,08,24.60
2022,10,07,13,09,24.60
2022,10,07,13,10,24.60
2022,10,07,13,11,24.60
2022,10,07,13,12,24.50
2022,10,07,13,13,24.50
2022,10,07,13,14,24.50
2022,10,07,13,15,24.40
2022,10,07,13,16,24.40
2022,10,07,13,17,24.30
2022,10,07,13,18,24.30
2022,10,07,13,19,24.30
2022,10,07,13,20,24.30
2022,10,07,13,21,24.30
2022,10,07,13,22,24.30
2022,10,07,13,23,24.30
2022,10,07,13,24,24.20
2022,10,07,13,25,24.10
2022,10,07,13,26,23.80
2022,10,07,13,27,23.60
2022,10,07,13,28,23.50
2022,10,07,13,29,23.30
2022,10,07,13,30,23.10
2022,10,07,13,31,23.00
2022,10,07,13,32,23.00
2022,10,07,13,33,22.90
2022,10,07,13,34,23.00
2022,10,07,13,35,23.00
2022,10,07,13,36,22.90
2022,10,07,13,37,22.80
2022,10,07,13,38,22.80
2022,10,07,13,39,22.70
2022,10,07,13,40,22.70
2022,10,07,13,41,22.70
2022,10,07,13,42,22.70
2022,10,07,13,43,22.70
2022,10,07,13,44,22.80
2022,10,07,13,45,22.90
2022,10,07,13,46,23.00
2022,10,07,13,47,23.10
2022,10,07,13,48,23.20
2022,10,07,13,49,23.20
2022,10,07,13,50,23.30
2022,10,07,13,51,23.30
2022,10,07,13,52,23.40
2022,10,07,13,53,23.40
2022,10,07,13,54,23.40
2022,10,07,13,55,23.40
2022,10,07,13,56,23.40
2022,10,07,13,57,23.50
2022,10,07,13,58,23.50
2022,10,07,13,59,23.50
2022,10,07,14,00,23.50
2022,10,07,14,01,23.50
2022,10,07,14,02,23.40
2022,10,07,14,03,23.40
2022,10,07,14,04,23.40
2022,10,07,14,05,23.30
2022,10,07,14,06,23.30
2022,10,07,14,07,23.30
2022,10,07,14,08,23.30
2022,10,07,14,09,23.30
2022,10,07,14,10,23.30
2022,10,07,14,11,23.30
2022,10,07,14,12,23.30
2022,10,07,14,13,23.30
2022,10,07,14,14,23.30
2022,10,07,14,15,23.20
2022,10,07,14,16,23.20
2022,10,07,14,17,23.20
2022,10,07,14,18,23.20
2022,10,07,14,19,23.20
2022,10,07,14,20,23.20
2022,10,07,14,21,23.20
2022,10,07,14,22,23.30
2022,10,07,14,23,23.30
2022,10,07,14,24,23.30
2022,10,07,14,25,23.30
2022,10,07,14,26,23.30
2022,10,07,14,27,23.30
2022,10,07,14,28,23.30
2022,10,07,14,29,23.20
2022,10,07,14,30,23.20
2022,10,07,14,31,23.20
2022,10,07,14,32,23.20
2022,10,07,14,33,23.20
2022,10,07,14,34,23.20
2022,10,07,14,35,23.20
2022,10,07,14,36,23.20
2022,10,07,14,37,23.20
2022,10,07,14,38,23.20
2022,10,07,14,39,23.20
2022,10,07,14,40,23.20
2022,10,07,14,41,23.10
2022,10,07,14,42,23.10
2022,10,07,14,43,23.10
2022,10,07,14,44,23.10
2022,10,07,14,45,23.10
2022,10,07,14,46,23.10
2022,10,07,14,47,23.10
2022,10,07,14,48,23.10
2022,10,07,14,49,23.00
2022,10,07,14,50,23.00
2022,10,07,14,51,23.00
2022,10,07,14,52,23.00
2022,10,07,14,53,23.10
2022,10,07,14,54,23.10
2022,10,07,14,55,23.20
2022,10,07,14,56,23.20
2022,10,07,14,57,23.20
2022,10,07,14,58,23.30
2022,10,07,14,59,23.30
2022,10,07,15,00,23.30
2022,10,07,15,01,23.30
2022,10,07,15,02,23.30
2022,10,07,15,03,23.30
2022,10,07,15,04,23.30
2022,10,07,15,05,23.30
2022,10,07,15,06,23.30
2022,10,07,15,07,23.30
2022,10,07,15,08,23.30
2022,10,07,15,09,23.30
2022,10,07,15,10,23.30
2022,10,07,15,11,23.30
2022,10,07,15,12,23.30
2022,10,07,15,13,23.30
2022,10,07,15,14,23.30
2022,10,07,15,15,23.30
2022,10,07,15,16,23.20
2022,10,07,15,17,23.20
2022,10,07,15,18,23.20
2022,10,07,15,19,23.20
2022,10,07,15,20,23.10
2022,10,07,15,21,23.10
2022,10,07,15,22,23.10
2022,10,07,15,23,23.10
2022,10,07,15,24,23.10
2022,10,07,15,25,23.20
2022,10,07,15,26,23.20
2022,10,07,15,27,23.20
2022,10,07,15,28,23.20
2022,10,07,15,29,23.20
2022,10,07,15,30,23.20
2022,10,07,15,31,23.20
2022,10,07,15,32,23.20
2022,10,07,15,33,23.20
2022,10,07,15,34,23.10
2022,10,07,15,35,23.10
2022,10,07,15,36,23.10
2022,10,07,15,37,23.10
2022,10,07,15,38,23.10
2022,10,07,15,39,23.10
2022,10,07,15,40,23.10
2022,10,07,15,41,23.10
2022,10,07,15,42,23.10
2022,10,07,15,43,23.10
2022,10,07,15,44,23.20
2022,10,07,15,45,23.20
2022,10,07,15,46,23.20
2022,10,07,15,47,23.20
2022,10,07,15,48,23.20
2022,10,07,15,49,23.20
2022,10,07,15,50,23.30
2022,10,07,15,51,23.30
2022,10,07,15,52,23.30
2022,10,07,15,53,23.30
2022,10,07,15,54,23.30
2022,10,07,15,55,23.30
2022,10,07,15,56,23.40
2022,10,07,15,57,23.40
2022,10,07,15,58,23.40
2022,10,07,15,59,23.40
2022,10,07,16,00,23.40
2022,10,07,16,01,23.40
2022,10,07,16,02,23.40
2022,10,07,16,03,23.30
2022,10,07,16,04,23.30
2022,10,07,16,05,23.30
2022,10,07,16,06,23.30
2022,10,07,16,07,23.20
2022,10,07,16,08,23.20
2022,10,07,16,09,23.20
2022,10,07,16,10,23.10
2022,10,07,16,11,23.10
2022,10,07,16,12,23.10
2022,10,07,16,13,23.10
2022,10,07,16,14,23.10
2022,10,07,16,15,23.00
2022,10,07,16,16,23.00
2022,10,07,16,17,23.00
2022,10,07,16,18,22.90
2022,10,07,16,19,22.90
2022,10,07,16,20,22.90
2022,10,07,16,21,22.90
2022,10,07,16,22,22.80
2022,10,07,16,23,22.80
2022,10,07,16,24,22.80
2022,10,07,16,25,22.70
2022,10,07,16,26,22.60
2022,10,07,16,27,22.50
2022,10,07,16,28,22.50
2022,10,07,16,29,22.40
2022,10,07,16,30,22.40
2022,10,07,16,31,22.30
2022,10,07,16,32,22.30
2022,10,07,16,33,22.30
2022,10,07,16,34,22.30
2022,10,07,16,35,22.20
2022,10,07,16,36,22.10
2022,10,07,16,37,22.00
2022,10,07,16,38,22.00
2022,10,07,16,39,21.90
2022,10,07,16,40,21.80
2022,10,07,16,41,21.80
2022,10,07,16,42,21.70
2022,10,07,16,43,21.70
2022,10,07,16,44,21.70
2022,10,07,16,45,21.70
2022,10,07,16,46,21.70
2022,10,07,16,47,21.70
2022,10,07,16,48,21.70
2022,10,07,16,49,21.70
2022,10,07,16,50,21.70
2022,10,07,16,51,21.70
2022,10,07,16,52,21.70
2022,10,07,16,53,21.70
2022,10,07,16,54,21.70
2022,10,07,16,55,21.70
2022,10,07,16,56,21.70
2022,10,07,16,57,21.70
2022,10,07,16,58,21.80
2022,10,07,16,59,21.70
2022,10,07,17,00,21.70
2022,10,07,17,01,21.70
2022,10,07,17,02,21.70
2022,10,07,17,03,21.70
2022,10,07,17,04,21.60
2022,10,07,17,05,21.60
2022,10,07,17,06,21.50
2022,10,07,17,07,21.40
2022,10,07,17,08,21.40
2022,10,07,17,09,21.30
2022,10,07,17,10,21.30
2022,10,07,17,11,21.30
2022,10,07,17,12,21.30
2022,10,07,17,13,21.20
2022,10,07,17,14,21.20
2022,10,07,17,15,21.10
2022,10,07,17,16,21.10
2022,10,07,17,17,21.00
2022,10,07,17,18,20.90
2022,10,07,17,19,20.90